This demonstration page uses our WeatherBlox Daily Observations layout. Learn more.

Left ArrowRight Arrow

Hourly Observations for December 19, 2018

Temp ( °F °C ) Dew Point ( °F °C ) Humidity (%) Winds ( mph kmh ) Pressure ( in mb ) Visibility ( mi km ) Precip ( " mm )
12:57 am 00:57 Clear 37 2.8 31 -0.6 79 79 WSW 10 17 29.76 1008 10 16 0.00 0.00
1:57 am 01:57 Clear 34 1.1 30 -1.1 85 85 SW 10 17 29.75 1007 10 16 0.00 0.00
2:57 am 02:57 Clear 34 1.1 29 -1.7 82 82 SW 8 13 29.73 1007 10 16 0.00 0.00
3:57 am 03:57 Clear 37 2.8 29 -1.7 73 73 W 13 20 29.72 1006 10 16 0.00 0.00
4:57 am 04:57 Clear 34 1.1 28 -2.2 79 79 W 5 7 29.70 1006 10 16 0.00 0.00
5:57 am 05:57 Clear 33 0.6 28 -2.2 82 82 WSW 5 7 29.68 1005 10 16 0.00 0.00
6:57 am 06:57 Clear 33 0.6 28 -2.2 82 82 WSW 7 11 29.69 1005 10 16 0.00 0.00
7:57 am 07:57 Sunny 37 2.8 29 -1.7 73 73 WNW 10 17 29.70 1006 10 16 0.00 0.00
8:57 am 08:57 Sunny 40 4.4 31 -0.6 70 70 NW 15 24 29.71 1006 10 16 0.00 0.00
9:57 am 09:57 Cloudy 43 6.1 34 1.1 71 71 NW 17 28 29.75 1007 10 16 0.00 0.00
10:57 am 10:57 Mostly Cloudy with Light Rain 43 6.1 38 3.3 82 82 NW 20 31 29.76 1008 10 16 0.00 0.03
11:57 am 11:57 Cloudy with Light Rain 44 6.7 38 3.3 79 79 NW 17 28 29.75 1007 10 16 0.00 0.03
12:57 pm 12:57 Sunny 47 8.3 36 2.2 66 66 NW 15 24 29.73 1007 10 16 0.00 0.03
1:57 pm 13:57 Sunny 48 8.9 34 1.1 58 58 NW 16 26 29.75 1007 10 16 0.00 0.00
2:57 pm 14:57 Cloudy 49 9.4 32 0 52 52 NNW 13 20 29.76 1008 10 16 0.00 0.00
3:57 pm 15:57 Sunny 49 9.4 31 -0.6 50 50 NNW 14 22 29.79 1009 10 16 0.00 0.00
4:57 pm 16:57 Sunny 46 7.8 31 -0.6 56 56 NW 9 15 29.83 1010 10 16 0.00 0.00
5:57 pm 17:57 Clear 39 3.9 29 -1.7 67 67 WNW 8 13 29.85 1011 10 16 0.00 0.00
6:57 pm 18:57 Clear 37 2.8 29 -1.7 73 73 WNW 12 19 29.86 1011 10 16 0.00 0.00
7:57 pm 19:57 Clear 35 1.7 28 -2.2 76 76 WNW 12 19 29.89 1012 10 16 0.00 0.00
8:57 pm 20:57 Clear 39 3.9 28 -2.2 65 65 NW 14 22 29.90 1012 10 16 0.00 0.00
9:57 pm 21:57 Clear 39 3.9 28 -2.2 65 65 NW 14 22 29.92 1013 10 16 0.00 0.00
10:57 pm 22:57 Clear 39 3.9 28 -2.2 65 65 NW 16 26 29.94 1014 10 16 0.00 0.00
11:57 pm 23:57 Clear 38 3.3 28 -2.2 68 68 NW 15 24 29.95 1014 10 16 0.00 0.00

Powered by AerisWeather